Regional Weather Roundup
Issued by NWS Bismarck, ND

Home | Current Version | Previous Version | Text Only | Print | Product List | Glossary On
Versions: 1 2 3 4 5 6 7 8 9 10 11 12 13 14 15 16 17 18 19 20 21 22 23 24 25 26 27 28 29 30 31 32 33 34 35 36 37 38 39 40 41 42 43 44 45 46 47 48 49 50
000
ASUS43 KBIS 271710
RWRBIS

NWR BROADCAST TEXT
NATIONAL WEATHER SERVICE BISMARCK ND
1200 PM CDT TUE SEP 27 2016

NOTE: "FAIR" INDICATES FEW OR NO CLOUDS BELOW 12,000 FEET WITH NO
SIGNIFICANT WEATHER AND/OR OBSTRUCTIONS TO VISIBILITY.


CITY           SKY/WX    TMP DP  RH WIND       PRES   REMARKS
WILLISTON      SUNNY     62  47  57 SE3       29.97F
MINOT          FAIR      62  37  39 W3        29.99S
MINOT AFB      FAIR      62  38  41 N5        29.98S
BISMARCK       SUNNY     62  39  42 CALM      30.00F
DICKINSON      SUNNY     67  48  50 W6        29.99F
GARRISON         N/A     63  38  39 VRB3      29.99F
HETTINGER ARPT SUNNY     70  46  42 W6        30.02F
JAMESTOWN      FAIR      61  34  36 NW17      29.95F
BEACH          FAIR      68  50  52 SW3       30.03F
CARRINGTON     FAIR      61  34  36 NW14      29.99S
HAZEN          FAIR      63  39  42 CALM      30.02S
LINTON         FAIR      63  41  45 NW6       30.01S
MANDAN         FAIR      63  41  45 NE3       30.01S
RUGBY          FAIR      59  36  41 NW12      29.98F
STANLEY        FAIR      64  39  39 VRB5      30.01F
WATFORD CITY   FAIR      64  46  52 CALM      29.98F
$$

CITY           SKY/WX    TMP DP  RH WIND       PRES   REMARKS
GRAND FORKS    FAIR      54  42  64 N21       29.91F
GRAND FORKS AF FAIR      56  43  61 N12G22    29.91F
DEVILS LAKE    FAIR      56  37  49 N13       29.96F
FARGO          FAIR      59  41  51 NW18      29.90F
CANDO          FAIR      61  34  36 N15       29.99S
CAVALIER       CLOUDY    50  41  71 N16G26    29.92F
GRAFTON        PTSUNNY   52  45  76 NW15G23   29.93F
GWINNER        FAIR      63  36  36 NW16      29.94F
LANGDON        FAIR      55  43  62 NW15      29.94S
ROLLA          FAIR      57  32  38 N15       29.98S
WALHALLA       FAIR      52  48  87 N18G26    29.93F
$$

CITY           SKY/WX    TMP DP  RH WIND       PRES   REMARKS
ABERDEEN       SUNNY     67  34  29 NW14      29.96F
MOBRIDGE       SUNNY     66  40  38 W6        29.97F
BUFFALO          N/A     73  48  41 NW10      29.97F
RAPID CITY     SUNNY     74  43  32 VRB5      30.06F
GLASGOW        SUNNY     65  48  54 VRB3      29.96S
SIDNEY         SUNNY     62  50  64 S7        29.97F
WOLF POINT     SUNNY     62  49  62 CALM      29.96F
GLENDIVE       SUNNY     62  51  67 S10       29.99F
MILES CITY     SUNNY     65  49  56 SW7       30.02F
BAKER          SUNNY     67  49  52 W12       30.03F
$$

CITY           SKY/WX    TMP DP  RH WIND       PRES   REMARKS
BILLINGS       SUNNY     69  46  43 SW16      30.09S
GREAT FALLS    SUNNY     75  43  31 SW18      30.04S
REGINA         SUNNY     64  43  45 SE18      29.92F
ESTEVAN        MOSUNNY   64  39  39 SE7       29.97F
$$





USA.gov is the U.S. government's official web portal to all federal, state and local government web resources and services.